TimeEST,TemperatureF,Dew PointF,Humidity,Sea Level PressureIn,VisibilityMPH,Wind Direction,Wind SpeedMPH,Gust SpeedMPH,PrecipitationIn,Events,Conditions,WindDirDegrees,DateUTC
12:54 AM,30.9,26.1,82,30.40,10.0,Calm,Calm,-,N/A,,Overcast,0,2012-12-13 05:54:00
1:54 AM,30.9,26.1,82,30.42,10.0,Calm,Calm,-,N/A,,Overcast,0,2012-12-13 06:54:00
2:54 AM,30.9,26.1,82,30.43,10.0,Calm,Calm,-,N/A,,Overcast,0,2012-12-13 07:54:00
3:54 AM,30.0,26.1,85,30.42,10.0,Calm,Calm,-,N/A,,Overcast,0,2012-12-13 08:54:00
4:54 AM,30.0,27.0,88,30.43,7.0,Calm,Calm,-,0.00,Snow,Light Snow,0,2012-12-13 09:54:00
5:40 AM,30.2,26.6,86,30.41,4.0,Calm,Calm,-,0.00,Snow,Light Snow,0,2012-12-13 10:40:00
5:54 AM,30.0,27.0,88,30.45,9.0,Calm,Calm,-,0.00,,Overcast,0,2012-12-13 10:54:00
6:54 AM,30.0,25.0,82,30.46,10.0,Calm,Calm,-,N/A,,Overcast,0,2012-12-13 11:54:00
7:54 AM,28.0,24.1,85,30.47,9.0,Calm,Calm,-,N/A,,Clear,0,2012-12-13 12:54:00
8:54 AM,30.0,26.1,85,30.47,8.0,Calm,Calm,-,N/A,,Scattered Clouds,0,2012-12-13 13:54:00
9:54 AM,33.1,23.0,66,30.46,10.0,Calm,Calm,-,N/A,,Clear,0,2012-12-13 14:54:00
10:54 AM,35.1,24.1,64,30.44,10.0,Variable,4.6,-,N/A,,Scattered Clouds,0,2012-12-13 15:54:00
11:06 AM,35.6,24.8,65,30.40,10.0,Calm,Calm,-,N/A,,Mostly Cloudy,0,2012-12-13 16:06:00
11:51 AM,35.6,23.0,60,30.38,10.0,North,4.6,-,N/A,,Overcast,10,2012-12-13 16:51:00
11:54 AM,34.0,23.0,64,30.42,10.0,North,4.6,-,N/A,,Mostly Cloudy,10,2012-12-13 16:54:00
12:54 PM,36.0,23.0,59,30.39,10.0,Calm,Calm,-,N/A,,Clear,0,2012-12-13 17:54:00
1:54 PM,37.0,21.9,54,30.38,10.0,Calm,Calm,-,N/A,,Clear,0,2012-12-13 18:54:00
2:54 PM,37.0,19.9,50,30.37,10.0,Variable,3.5,-,N/A,,Clear,0,2012-12-13 19:54:00
3:54 PM,36.0,19.9,52,30.37,10.0,Calm,Calm,-,N/A,,Clear,0,2012-12-13 20:54:00
4:54 PM,30.9,21.9,69,30.36,10.0,Calm,Calm,-,N/A,,Clear,0,2012-12-13 21:54:00
8:54 PM,25.0,21.0,85,30.30,10.0,Calm,Calm,-,N/A,,Clear,0,2012-12-14 01:54:00
9:54 PM,24.1,19.9,84,30.29,10.0,Calm,Calm,-,N/A,,Clear,0,2012-12-14 02:54:00
10:54 PM,24.1,21.0,88,30.28,9.0,Calm,Calm,-,N/A,,Clear,0,2012-12-14 03:54:00
11:54 PM,25.0,21.0,85,30.25,10.0,Calm,Calm,-,N/A,,Clear,0,2012-12-14 04:54:00